map of DUB home
DUB - Airport
Location
City:  Dublin, County Dublin, Leinster, Ireland
Name:Dublin International Airport
ICAO:EIDW
IATA:DUB

Details
Type:Airport (Aerodrome, Airfield)
Use:International (customs port of entry)
Latitude:5325'17"N (53.421389)
Longitude:616'12"W (-6.269999)
Elevation:242 ft (74 m)
Variation:2.86W (WMM2015 magnetic declination)
0.16 annual change
Runways:3
Longest:8652 × 148 ft (2637 × 45 m), paved

Time
Time Zone:UTC+0 (DST+1)
Local Time:

Weather
METAR:EIDW 181430Z 22011KT 9999 FEW018 BKN160 09/05 Q0993 NOSIG
TAF:EIDW 181100Z 1812/1912 20011KT 9999 FEW016 SCT025 PROB30
TEMPO 1812/1821 -SHRA FEW018CB
BECMG 1818/1821 23010KT
BECMG 1908/1911 20014KT
TEMPO 1909/1912 20015G25KT -SHRA SCT018CB

Related Locations
Nearby:
Farthest:SZS: 11917 mi / 19178 km
Ryan's Creek, Stewart Island, STL, NZ

Find:

   beyond  
but within

Other Information
Maps:
NOTAMs:
Links:
Sources:

  
  • flag of Ireland
  • flag of Leinster
  • flag of Dublin
  

Sectional Chart

Flight Planning
at skyvector.com

Satellite Image

Google Maps Satellite view

 

Copyright © 2004-2018 Karl L. Swartz. All rights reserved.
The Great Circle Mapper name and logo are trademarks of the Great Circle Mapper.
All other trademarks mentioned herein belong to their respective owners.
Please see credits for attibutions and further copyright information.

  Follow gcmap on Facebook Follow gcmap on Twitter Follow gcmap on Google+ GCmap on LinkedIn

hCard Microformat

Geo Microformat